DW9447 Weather Reports


Display with metric or nautical units.
time (UTC)temp
F
wind
direction
speed
MPH
gust
MPH
rain 1hr
in
rain 24hr
in
rain mn
in
humidity
%
barometer
mb
20260906113936 76 211 2.0 4.0 0.00 0.00 0.00 84 1013.6
20260906113437 76 290 2.0 5.0 0.00 0.00 0.00 84 1013.5
20260906112937 76 264 2.0 6.0 0.00 0.00 0.00 84 1013.6
20260906111935 76 322 2.0 5.0 0.00 0.00 0.00 83 1014.0
20260906110935 76 355 1.0 5.0 0.00 0.00 0.00 83 1013.7
20260906110436 76 115 2.0 5.0 0.00 0.00 0.00 83 1014.0
20260906105426 76 30 1.0 3.0 0.00 0.00 0.00 83 1013.9
20260906104920 76 347 1.0 4.0 0.00 0.00 0.00 82 1013.9
20260906104418 76 35 1.0 4.0 0.00 0.00 0.00 82 1013.8
20260906103916 76 77 1.0 3.0 0.00 0.00 0.00 82 1013.8
20260906103416 76 21 1.0 3.0 0.00 0.00 0.00 82 1013.9
20260906102916 76 40 1.0 3.0 0.00 0.00 0.00 82 1013.9
20260906102416 77 35 1.0 5.0 0.00 0.00 0.00 82 1013.8
20260906101922 77 60 2.0 5.0 0.00 0.00 0.00 82 1013.7
20260906101417 77 45 2.0 6.0 0.00 0.00 0.00 82 1013.7
20260906100917 77 25 2.0 6.0 0.00 0.00 0.00 82 1013.8
20260906100416 77 65 2.0 6.0 0.00 0.00 0.00 81 1013.8
20260906095916 77 335 3.0 8.0 0.00 0.00 0.00 82 1013.9
20260906095416 78 30 3.0 8.0 0.00 0.00 0.00 82 1013.9
20260906094417 78 79 3.0 7.0 0.00 0.00 0.00 82 1013.7
20260906093917 78 98 1.0 5.0 0.00 0.00 0.00 81 1013.6
20260906092906 78 100 1.0 6.0 0.00 0.00 0.00 81 1013.2
20260906092354 78 116 2.0 6.0 0.00 0.00 0.00 81 1013.1
20260906091849 78 104 2.0 3.0 0.00 0.00 0.00 81 1013.1
20260906091343 78 94 2.0 4.0 0.00 0.00 0.00 82 1013.1
20260906090833 78 72 2.0 5.0 0.00 0.00 0.00 82 1013.2
20260906090327 78 150 2.0 5.0 0.00 0.00 0.00 83 1013.3
20260906085821 78 122 3.0 5.0 0.00 0.00 0.00 83 1013.3
20260906085311 78 76 3.0 5.0 0.00 0.00 0.00 84 1013.4
20260906084805 78 109 3.0 6.0 0.00 0.00 0.00 85 1013.2
20260906084300 78 103 3.0 6.0 0.00 0.00 0.00 86 1013.1
20260906083749 78 96 3.0 8.0 0.00 0.00 0.00 86 1013.0
20260906083243 78 135 2.0 8.0 0.00 0.00 0.00 86 1012.8
20260906082739 78 74 2.0 5.0 0.00 0.00 0.00 87 1013.0
20260906082227 78 126 2.0 5.0 0.00 0.00 0.00 87 1012.9
20260906081721 78 42 2.0 4.0 0.00 0.00 0.00 87 1012.8
20260906081215 78 207 2.0 6.0 0.00 0.00 0.00 88 1012.7
20260906080705 78 79 3.0 6.0 0.00 0.00 0.00 88 1013.0
20260906075653 78 60 1.0 4.0 0.00 0.00 0.00 89 1012.9
20260906075143 78 51 1.0 4.0 0.00 0.00 0.00 89 1012.5
20260906074637 78 76 0.0 4.0 0.00 0.00 0.00 89 1012.8
20260906074131 78 337 0.0 0.0 0.00 0.00 0.00 89 1012.4
20260906073621 78 337 0.0 0.0 0.00 0.00 0.00 88 1012.3
20260906073115 78 337 0.0 0.0 0.00 0.00 0.00 88 1012.4
20260906072609 78 337 0.0 0.0 0.00 0.00 0.00 88 1012.4
20260906072100 78 337 0.0 1.0 0.00 0.00 0.00 88 1012.5
20260906071553 78 337 0.0 1.0 0.00 0.00 0.00 88 1012.5
20260906071047 78 337 0.0 1.0 0.00 0.00 0.00 88 1012.5
20260906070537 78 337 0.0 1.0 0.00 0.00 0.00 88 1012.6
20260906070030 78 337 0.0 1.0 0.00 0.00 0.00 88 1012.5
20260906065525 78 337 0.0 0.0 0.00 0.00 0.00 88 1012.4
20260906065014 78 337 0.0 1.0 0.00 0.00 0.00 87 1012.3
20260906064509 79 337 0.0 1.0 0.00 0.00 0.00 87 1012.3
20260906064005 79 337 0.0 1.0 0.00 0.00 0.00 87 1012.4
20260906063453 79 337 0.0 1.0 0.00 0.00 0.00 87 1012.5
20260906062947 79 337 0.0 1.0 0.00 0.00 0.00 87 1012.4
20260906062442 79 316 0.0 0.0 0.00 0.00 0.00 87 1012.4
20260906061932 79 316 0.0 0.0 0.00 0.00 0.00 86 1012.4
20260906061425 79 316 0.0 2.0 0.00 0.00 0.00 87 1012.2
20260906060920 79 316 0.0 2.0 0.00 0.00 0.00 86 1012.2
20260906055903 79 316 0.0 1.0 0.00 0.00 0.00 86 1012.2
20260906054900 79 316 0.0 1.0 0.00 0.00 0.00 85 1012.0
20260906054357 80 316 0.0 1.0 0.00 0.00 0.00 85 1012.0
20260906053857 80 316 0.0 0.0 0.00 0.00 0.00 85 1012.1
20260906052852 80 316 1.0 2.0 0.00 0.00 0.00 85 1012.2
20260906052349 80 316 0.0 2.0 0.00 0.00 0.00 85 1012.2
20260906051850 80 50 0.0 1.0 0.00 0.00 0.00 84 1012.4
20260906051350 80 50 0.0 0.0 0.00 0.00 0.00 83 1012.4
20260906050848 80 50 0.0 0.0 0.00 0.00 0.00 83 1012.5
20260906045844 80 50 0.0 0.0 0.00 0.00 0.00 84 1012.6
20260906045343 80 50 0.0 0.0 0.00 0.00 0.00 84 1012.6
20260906044842 81 50 0.0 0.0 0.00 0.00 0.00 84 1012.7
20260906044341 81 50 0.0 0.0 0.00 0.00 0.00 84 1012.7
20260906043836 81 50 0.0 0.0 0.00 0.00 0.00 84 1012.7
20260906043335 81 50 0.0 0.0 0.00 0.00 0.00 84 1012.8
20260906042834 81 50 0.0 0.0 0.00 0.00 0.00 84 1012.9
20260906041832 81 50 0.0 1.0 0.00 0.00 0.00 83 1012.8
20260906041330 81 50 0.0 2.0 0.00 0.00 0.00 83 1012.7
20260906035828 81 105 0.0 3.0 0.00 0.00 0.00 83 1012.9
20260906035327 81 350 0.0 1.0 0.00 0.00 0.00 82 1012.8
20260906034825 81 350 0.0 0.0 0.00 0.00 0.00 82 1012.7
20260906034325 81 350 0.0 0.0 0.00 0.00 0.00 82 1012.7
20260906033820 81 350 0.0 0.0 0.00 0.00 0.00 82 1012.6
20260906033321 82 350 0.0 0.0 0.00 0.00 0.00 81 1012.6
20260906032818 82 350 0.0 0.0 0.00 0.00 0.00 80 1012.6
20260906032317 82 350 0.0 0.0 0.00 0.00 0.00 81 1012.5
20260906030818 82 350 0.0 0.0 0.00 0.00 0.00 80 1012.5
20260906030318 82 350 0.0 0.0 0.00 0.00 0.00 80 1012.4
20260906025821 82 350 0.0 0.0 0.00 0.00 0.00 79 1012.4
20260906025318 83 350 0.0 0.0 0.00 0.00 0.00 79 1012.3
20260906024818 83 350 0.0 0.0 0.00 0.00 0.00 79 1012.4
20260906024318 83 350 0.0 0.0 0.00 0.00 0.00 79 1012.2
20260906023318 83 350 0.0 0.0 0.00 0.00 0.00 78 1012.1
20260906022318 84 350 0.0 0.0 0.00 0.00 0.00 77 1011.9
20260906020818 84 350 0.0 0.0 0.00 0.00 0.00 75 1011.7
20260906020317 85 350 0.0 0.0 0.00 0.00 0.00 75 1011.7
20260906015814 85 350 0.0 0.0 0.00 0.00 0.00 75 1011.6
20260906015313 85 350 0.0 0.0 0.00 0.00 0.00 74 1011.6
20260906014814 85 350 0.0 0.0 0.00 0.00 0.00 74 1011.6
20260906014313 86 350 0.0 0.0 0.00 0.00 0.00 73 1011.5
20260906013814 86 350 0.0 0.0 0.00 0.00 0.00 73 1011.5
20260906013314 86 350 0.0 0.0 0.00 0.00 0.00 73 1011.6
20260906012814 86 350 0.0 0.0 0.00 0.00 0.00 72 1011.6
20260906012313 87 350 0.0 0.0 0.00 0.00 0.00 70 1011.5
20260906011810 87 350 0.0 0.0 0.00 0.00 0.00 69 1011.5
20260906011310 87 350 0.0 0.0 0.00 0.00 0.00 70 1011.4
20260906010809 88 350 0.0 0.0 0.00 0.00 0.00 70 1011.4
20260906010309 88 350 0.0 0.0 0.00 0.00 0.00 68 1011.4
20260906005810 88 350 0.0 0.0 0.00 0.00 0.00 68 1011.4
20260906005310 89 350 0.0 1.0 0.00 0.00 0.00 68 1011.3
20260906004810 89 350 0.0 1.0 0.00 0.00 0.00 67 1011.2
20260906004311 89 350 0.0 0.0 0.00 0.00 0.00 66 1011.2
20260906003808 90 350 0.0 0.0 0.00 0.00 0.00 64 1011.2
20260906002259 92 350 0.0 0.0 0.00 0.00 0.00 62 1011.1
20260906001753 92 350 0.0 0.0 0.00 0.00 0.00 62 1011.1
20260906001248 92 350 0.0 0.0 0.00 0.00 0.00 61 1011.2
20260906000245 93 350 0.0 0.0 0.00 0.00 0.00 59 1011.3
20260905235745 93 350 0.0 0.0 0.00 0.00 0.00 59 1011.3
20260905235245 94 350 0.0 0.0 0.00 0.00 0.00 58 1011.4
20260905234743 94 350 0.0 1.0 0.00 0.00 0.00 57 1011.3
20260905233743 95 350 0.0 1.0 0.00 0.00 0.00 55 1011.3
20260905233241 95 20 0.0 1.0 0.00 0.00 0.00 55 1011.4
20260905232739 95 25 0.0 3.0 0.00 0.00 0.00 54 1011.3
20260905232238 95 25 1.0 3.0 0.00 0.00 0.00 52 1011.3
20260905231738 95 54 1.0 3.0 0.00 0.00 0.00 52 1011.3
20260905231237 95 344 0.0 3.0 0.00 0.00 0.00 52 1011.2
20260905230737 96 15 0.0 3.0 0.00 0.00 0.00 51 1011.3
20260905230235 96 351 1.0 4.0 0.00 0.00 0.00 51 1011.2
20260905225226 96 25 1.0 3.0 0.00 0.00 0.00 51 1011.2
20260905224720 96 18 1.0 3.0 0.00 0.00 0.00 51 1011.2
20260905224214 96 32 1.0 3.0 0.00 0.00 0.00 50 1011.2
20260905223704 96 54 1.0 3.0 0.00 0.00 0.00 50 1011.2
20260905223158 97 83 1.0 3.0 0.00 0.00 0.00 50 1011.2
20260905222652 97 347 0.0 3.0 0.00 0.00 0.00 50 1011.2
20260905222141 97 23 1.0 3.0 0.00 0.00 0.00 49 1011.2
20260905221130 97 335 1.0 2.0 0.00 0.00 0.00 49 1011.2
20260905220620 97 31 1.0 3.0 0.00 0.00 0.00 49 1011.3
20260905220114 97 341 1.0 3.0 0.00 0.00 0.00 49 1011.3
20260905215608 97 40 2.0 4.0 0.00 0.00 0.00 49 1011.3
20260905215059 98 27 2.0 4.0 0.00 0.00 0.00 48 1011.3
20260905214552 98 30 2.0 5.0 0.00 0.00 0.00 48 1011.4
20260905214046 98 31 1.0 5.0 0.00 0.00 0.00 48 1011.3
20260905213030 99 78 2.0 4.0 0.00 0.00 0.00 48 1011.4
20260905212014 99 99 1.0 4.0 0.00 0.00 0.00 45 1011.5
20260905211508 100 356 1.0 4.0 0.00 0.00 0.00 45 1011.5
20260905211002 100 321 2.0 4.0 0.00 0.01 0.00 46 1011.5
20260905210452 100 309 2.0 4.0 0.00 0.01 0.00 47 1011.5
20260905205946 100 271 1.0 5.0 0.00 0.01 0.00 47 1011.6
20260905205441 99 302 1.0 5.0 0.00 0.02 0.00 46 1011.7
20260905204930 99 309 1.0 3.0 0.00 0.03 0.00 46 1011.7
20260905204424 99 57 2.0 5.0 0.00 0.04 0.00 47 1011.8
20260905203408 99 46 2.0 6.0 0.00 0.11 0.00 48 1011.9
20260905202902 99 31 1.0 4.0 0.00 0.15 0.00 49 1012.0
20260905202356 98 304 1.0 4.0 0.00 0.16 0.00 49 1012.0
20260905200834 98 65 1.0 5.0 0.00 0.19 0.00 51 1012.2
20260905195312 97 325 1.0 3.0 0.00 0.19 0.00 50 1012.6
20260905194802 97 30 1.0 4.0 0.00 0.19 0.00 50 1012.6
20260905194256 98 53 2.0 4.0 0.00 0.19 0.00 49 1012.8
20260905193751 98 91 2.0 5.0 0.00 0.19 0.00 49 1012.8
20260905192734 99 101 1.0 4.0 0.00 0.19 0.00 48 1012.9
20260905192228 99 243 2.0 5.0 0.00 0.19 0.00 47 1012.9
20260905191212 98 57 2.0 4.0 0.00 0.19 0.00 47 1013.2
20260905190156 98 167 2.0 7.0 0.00 0.19 0.00 49 1013.4
20260905185651 98 269 2.0 7.0 0.00 0.19 0.00 48 1013.4
20260905185145 98 349 2.0 8.0 0.00 0.19 0.00 48 1013.4
20260905184634 98 46 2.0 8.0 0.00 0.19 0.00 48 1013.5
20260905184128 98 330 2.0 6.0 0.00 0.19 0.00 48 1013.5
20260905183623 98 349 3.0 6.0 0.00 0.19 0.00 47 1013.6
20260905183112 98 314 2.0 5.0 0.00 0.19 0.00 48 1013.7
20260905182611 98 307 1.0 5.0 0.00 0.19 0.00 49 1013.7
20260905182111 98 271 2.0 5.0 0.00 0.19 0.00 49 1013.8
20260905181112 98 93 2.0 7.0 0.00 0.19 0.00 47 1013.8
20260905180612 98 37 1.0 7.0 0.00 0.19 0.00 48 1013.9
20260905180116 98 14 1.0 4.0 0.00 0.19 0.00 48 1013.9
20260905175611 99 16 2.0 5.0 0.00 0.19 0.00 49 1013.9
20260905175109 99 314 3.0 6.0 0.00 0.19 0.00 48 1014.0
20260905174609 99 295 2.0 6.0 0.00 0.19 0.00 49 1014.0
20260905174106 99 315 2.0 5.0 0.00 0.19 0.00 50 1014.0
20260905173606 99 103 2.0 5.0 0.00 0.19 0.00 49 1014.0
20260905173107 99 136 2.0 5.0 0.00 0.19 0.00 49 1014.0
20260905172607 99 171 2.0 5.0 0.00 0.19 0.00 50 1014.1
20260905172107 98 138 1.0 5.0 0.00 0.19 0.00 50 1014.1
20260905171603 98 92 1.0 4.0 0.00 0.19 0.00 51 1014.2
20260905170601 98 318 2.0 5.0 0.00 0.19 0.00 51 1014.3
20260905170101 98 290 2.0 5.0 0.00 0.19 0.00 50 1014.3
20260905165559 98 309 2.0 4.0 0.00 0.19 0.00 51 1014.4
20260905165059 98 312 2.0 4.0 0.00 0.19 0.00 51 1014.5
20260905163556 97 271 3.0 6.0 0.00 0.19 0.00 52 1014.8
20260905163057 97 302 3.0 6.0 0.00 0.19 0.00 52 1014.8
20260905162556 97 279 2.0 5.0 0.00 0.19 0.00 53 1014.9
20260905162056 97 311 2.0 5.0 0.00 0.19 0.00 54 1015.0
20260905161600 96 283 2.0 5.0 0.00 0.19 0.00 54 1015.0
20260905160556 96 318 1.0 5.0 0.00 0.19 0.00 57 1015.1
20260905160056 96 19 1.0 4.0 0.00 0.19 0.00 57 1015.1
20260905155556 95 297 2.0 4.0 0.00 0.19 0.00 59 1015.1
20260905155057 95 297 2.0 4.0 0.00 0.19 0.00 58 1015.2
20260905154556 95 271 1.0 4.0 0.00 0.19 0.00 60 1015.2
20260905154056 94 84 1.0 3.0 0.00 0.19 0.00 59 1015.3
20260905153556 94 68 1.0 3.0 0.00 0.19 0.00 60 1015.3
20260905153057 93 37 1.0 4.0 0.00 0.19 0.00 60 1015.3
20260905152557 93 271 1.0 4.0 0.00 0.19 0.00 60 1015.2
20260905151556 92 300 1.0 5.0 0.00 0.19 0.00 62 1015.2
20260905151056 92 323 2.0 5.0 0.00 0.19 0.00 64 1015.2
20260905150557 92 330 2.0 4.0 0.00 0.19 0.00 64 1015.2
20260905150056 91 308 2.0 4.0 0.00 0.19 0.00 65 1015.2
20260905145556 91 255 1.0 3.0 0.00 0.19 0.00 66 1015.3
20260905145056 91 278 1.0 3.0 0.00 0.19 0.00 66 1015.2
20260905144557 90 307 1.0 3.0 0.00 0.19 0.00 65 1015.2
20260905143055 89 297 0.0 1.0 0.00 0.19 0.00 69 1015.3
20260905142545 88 53 0.0 2.0 0.00 0.19 0.00 69 1015.3
20260905141534 87 100 0.0 2.0 0.00 0.19 0.00 70 1015.3
20260905140517 86 135 1.0 3.0 0.00 0.19 0.00 75 1015.4
20260905140012 85 130 1.0 3.0 0.00 0.19 0.00 78 1015.6
20260905135501 84 101 0.0 2.0 0.00 0.19 0.00 77 1015.4
20260905134955 83 115 0.0 2.0 0.00 0.19 0.00 81 1015.4
20260905134450 82 118 0.0 2.0 0.00 0.19 0.00 82 1015.3
20260905133940 81 19 0.0 1.0 0.00 0.19 0.00 85 1015.4
20260905133433 80 19 0.0 1.0 0.00 0.19 0.00 88 1015.4
20260905132927 79 98 0.0 1.0 0.00 0.19 0.00 91 1015.3
20260905131911 78 98 0.0 1.0 0.00 0.19 0.00 94 1015.4
20260905131404 77 98 0.0 1.0 0.00 0.19 0.00 94 1015.4
20260905130857 77 98 0.0 1.0 0.00 0.19 0.00 94 1015.4
20260905130349 76 98 0.0 1.0 0.00 0.19 0.00 95 1015.4
20260905125843 76 98 0.0 0.0 0.00 0.19 0.00 95 1015.6
20260905125333 76 98 0.0 0.0 0.00 0.19 0.00 95 1015.6
20260905124827 75 98 0.0 1.0 0.00 0.19 0.00 95 1015.6
20260905124320 75 98 0.0 1.0 0.00 0.19 0.00 95 1015.6
20260905123304 74 98 0.0 1.0 0.00 0.19 0.00 94 1015.4
20260905122759 74 98 0.0 1.0 0.00 0.19 0.00 94 1015.6
20260905122249 73 98 0.0 0.0 0.00 0.19 0.00 94 1015.4
20260905121743 73 98 0.0 1.0 0.00 0.19 0.00 94 1015.4
20260905121238 73 98 0.0 1.0 0.00 0.19 0.00 94 1015.3
20260905120221 73 98 0.0 0.0 0.00 0.19 0.00 93 1015.2
20260905115715 73 98 0.0 0.0 0.00 0.19 0.00 93 1015.2
20260905114659 73 98 0.0 0.0 0.00 0.19 0.00 93 1015.1